Regional Weather Roundup
Issued by NWS

Home | Current Version | Previous Version | Text Only | Print | Product List | Glossary On
Versions: 1 2 3 4 5 6 7 8 9 10 11 12 13 14 15 16 17 18 19 20 21 22 23 24 25 26 27 28 29 30 31 32 33 34 35 36 37 38 39 40 41 42 43 44 45 46 47 48 49 50
000
ASUS45 KBOU 300207
RWRCO

WEATHER ROUNDUP FOR COLORADO
NATIONAL WEATHER SERVICE DENVER/BOULDER CO
800 PM MDT MON MAY 29 2017

NOTE: "FAIR" INDICATES FEW OR NO CLOUDS BELOW 12000 FEET WITH NO
SIGNIFICANT WEATHER AND/OR OBSTRUCTIONS TO VISIBILITY.

COZ001>005-013-030-031-300300-
...NORTHWEST COLORADO...

CITY           SKY/WX    TMP DP  RH WIND       PRES   REMARKS
CRAIG          FAIR      65  34  31 N5        30.18S
HAYDEN         FAIR      61  36  39 E13       30.21R
MEEKER         FAIR      65  33  30 N9        30.18R
RABBIT EARS PA FAIR      41  32  70 NW5       30.42S
STEAMBOAT SPGS FAIR      57  38  48 SE5       30.23R
WALDEN           N/A     50  34  53 E7        30.32S
$$

COZ006>008-011-300300-
...WEST CENTRAL VALLEYS...

CITY           SKY/WX    TMP DP  RH WIND       PRES   REMARKS
GRAND JUNCTION FAIR      79  28  15 W7        30.03R
MONTROSE       FAIR      74  18  12 NW6       30.10R
EAGLE          FAIR      67  33  28 NE6       30.20R
RIFLE          FAIR      74  25  16 N8        30.10R
DELTA          FAIR      80  20  11 NW9       30.05S
NUCLA          FAIR      75  21  13 CALM      30.13S
$$

COZ017>023-064>068-300300-
...SOUTHWEST COLORADO...

CITY           SKY/WX    TMP DP  RH WIND       PRES   REMARKS
DURANGO        FAIR      70  16  12 NW6       30.12R
CORTEZ         FAIR      74  24  15 NW3       30.08S
PAGOSA SPRINGS MOCLDY    69  12  11 W8        30.19S
TELLURIDE      FAIR      57  26  30 E3        30.33R
WOLF CREEK PAS CLOUDY    43  19  39 N3        30.51R
$$

COZ009-010-012-014-032>034-037-058>063-300300-
...CENTRAL COLORADO...

CITY           SKY/WX    TMP DP  RH WIND       PRES   REMARKS
ASPEN          FAIR      59  28  30 NW7       30.22R
BUENA VISTA    CLOUDY    58  34  40 NE16G23   30.28R
COPPER MTN     CLOUDY    41  27  56 NW6       30.49S
BERTHOUD PASS  MOCLDY    32  21  64 NW8       30.51R WCI  25
COTTONWOOD PAS FAIR      54  32  43 NE7G22    30.37R
GUNNISON       FAIR      63  24  22 N8        30.21R
KREMMLING      FAIR      63  32  31 NW6       30.26R
LEADVILLE      FAIR      49  23  36 N10       30.35R
MONARCH PASS   FAIR      45  18  33 NW9       30.57R
SALIDA         FAIR      62  34  35 SE21G29   30.28R
SUNLIGHT       FAIR      45  21  39 N5        30.45R
WILKERSON PASS CLOUDY    36  32  87 SE3       30.48R
$$

COZ069>075-300300-
...SAN LUIS VALLEY/SANGRE DE CRISTO MOUNTAINS...

CITY           SKY/WX    TMP DP  RH WIND       PRES   REMARKS
ALAMOSA        MOCLDY    62  37  39 E20       30.19R
DEL NORTE      CLOUDY    64  20  18 N14G24    30.22R
LA VETA PASS   MOCLDY    43  34  70 NE24G31   30.49S
SAGUACHE       MOCLDY    64  28  25 E6        30.22R
$$

COZ035-036-038>040-300300-
...NORTHERN COLORADO FRONT RANGE...

CITY           SKY/WX    TMP DP  RH WIND       PRES   REMARKS
DENVER INTL AP FAIR      57  45  64 SE8       30.21R
DMNS CITY PARK   N/A     60  41  48 E9        30.20S
AURORA         NOT AVBL
FRONT RANGE AP PTCLDY    59  50  72 S9        30.22R
ERIE MUNI ARPT FAIR      63  38  39 CALM      30.19R
BOULDER MUN AP FAIR      63  37  39 SE3       30.20R
CENTENNIAL     FAIR      58  45  62 S3        30.23R
BROOMFIELD     MOCLDY    63  39  42 VRB3      30.22S
FORT COLLINS   FAIR      58  44  60 MISG      30.19R
LONGMONT       FAIR      65  41  41 CALM      30.21R
$$

COZ041-046-047-076>085-087-088-300300-
...PIKES PEAK/PALMER DIVIDE AND SOUTHERN FOOTHILLS...

CITY           SKY/WX    TMP DP  RH WIND       PRES   REMARKS
COLO. SPRINGS  MOCLDY    58  44  60 SE5       30.26R
A. F. ACADEMY  FAIR      53  48  82 W5        30.27S
SCHRIEVER AFB  MOCLDY    54  44  68 N7        30.26S
CHEYENNE MTN   MOCLDY    53  39  58 NW8       30.24R
ELLICOTT       LGT RAIN N/A N/A N/A NE5       30.25R
FALCON         MOCLDY    53  42  66 CALM      30.29S
FORT CARSON    NOT AVBL
LIMON          FAIR      52  48  86 CALM      30.22R
MONUMENT HILL  FAIR      46  41  81 SE5       30.30R
CANON CITY     NOT AVBL
WALSENBURG     CLOUDY    63  43  48 N12G22    30.22R
TRINIDAD       CLOUDY    59  43  55 N14G26    30.20R
$$

COZ042>045-048>051-090-091-300300-
...NORTHEAST COLORADO...

CITY           SKY/WX    TMP DP  RH WIND       PRES   REMARKS
GREELEY ARPT   FAIR      65  44  46 E6        30.18R
AKRON          MOCLDY    61  45  55 SW12      30.18R
BURLINGTON     RAIN      54  49  83 N13G24    30.21S
WRAY           CLOUDY    64  43  45 SW8       30.14R
YUMA           CLOUDY    59  36  41 SW12      30.16R
STERLING       NOT AVBL
HOLYOKE        NOT AVBL
FORT MORGAN    FAIR      60  46  58 SW6       30.18R
$$

COZ086-089-092>099-300300-
...SOUTHEAST COLORADO...

CITY           SKY/WX    TMP DP  RH WIND       PRES   REMARKS
PUEBLO         FAIR      64  43  46 NE15      30.16R
LA JUNTA       FAIR      65  46  50 NE24G36   30.15R
LAMAR          TSTM      59  52  77 SE9       30.15R
SPRINGFIELD      N/A     55  50  83 S9        30.17R
$$



USA.gov is the U.S. government's official web portal to all federal, state and local government web resources and services.